Regional Weather Roundup
Issued by NWS

Home | Current Version | Previous Version | Graphics & Text | Print | Product List | Glossary On
Versions: 1 2 3 4 5 6 7 8 9 10 11 12 13 14 15 16 17 18 19 20 21 22 23 24 25 26 27 28 29 30 31 32 33 34 35 36 37 38 39 40 41 42 43 44 45 46 47 48 49 50
000
ASUS43 KDMX 210607
RWRIA

WEATHER ROUNDUP FOR IOWA
NATIONAL WEATHER SERVICE DES MOINES IA
100 AM CDT SUN SEP 21 2014

NOTE: "FAIR" INDICATES FEW OR NO CLOUDS BELOW 12,000 FEET WITH NO
SIGNIFICANT WEATHER AND/OR OBSTRUCTIONS TO VISIBILITY.

* - THESE STATIONS ARE NOT NWS STATIONS...THUS NOT UNDER NWS
QUALITY CONTROL.  THEY ALSO DO NOT REPORT WEATHER SUCH
AS PRECIPITATION OR FOG.

IAZ001>003-012>014-020>022-031>034-043>046-210700-
   NORTHWEST IOWA

CITY           SKY/WX    TMP DP  RH WIND       PRES   REMARKS
CARROLL *      CLEAR     54  52  94 W8        30.03S
CHEROKEE *     CLEAR     56  50  79 W6        30.04S
DENISON *      CLEAR     55  54  94 CALM      30.04S
LE MARS *        N/A     54  50  87 CALM      30.06R
ORANGE CITY *  CLEAR     54  45  71 W5        30.04F
SHELDON *      CLEAR     54  48  82 W8        30.02S
SIOUX CITY     CLEAR     58  50  75 W8        30.07R
6HR MIN TEMP:  57; 6HR MAX TEMP:  80;

SPENCER        CLEAR     52  48  86 W8        30.01R
6HR MIN TEMP:  52; 6HR MAX TEMP:  78;

STORM LAKE *   CLEAR     52  52 100 W8        30.03S
$$

IAZ055>058-069>071-079>083-090>094-210700-
   SOUTHWEST IOWA

CITY           SKY/WX    TMP DP  RH WIND       PRES   REMARKS
ATLANTIC *     CLEAR     59  52  77 NW3       30.05S
AUDUBON *      CLEAR     54  46  76 CALM      30.06R
CLARINDA *     CLEAR     63  52  67 N6        30.07R
COUNCIL BLFS * CLEAR     61  59  94 N6        30.06S
CRESTON *      CLEAR     61  52  72 N8        30.05R
HARLAN  *      CLEAR     55  54  94 NW6       30.09S
LAMONI         MOCLDY    64  49  57 N17G30    30.02R
6HR MIN TEMP:  64; 6HR MAX TEMP:  76;

RED OAK *      CLEAR     59  54  82 N6        30.06R
SHENANDOAH *     N/A     61  55  82 N5        30.07R
$$

IAZ047>049-059>061-072>074-084-210700-
   CENTRAL IOWA

CITY           SKY/WX    TMP DP  RH WIND       PRES   REMARKS
AMES           CLEAR     57  53  86 W6        29.99S
6HR MIN TEMP:  57; 6HR MAX TEMP:  77;

ANKENY *       CLEAR     59  54  82 NW6       30.00S
CHARITON *     MOCLDY    63  52  67 N13G20    30.01R
DES MOINES     CLEAR     62  51  67 N6        30.00S
6HR MIN TEMP:  62; 6HR MAX TEMP:  78;

GRINNELL*      CLEAR     57  53  86 W7        29.99R
KNOXVILLE *    CLEAR     61  54  77 NW10      29.99R
MARSHALLTOWN   CLEAR     55  53  93 W6        29.96S
6HR MIN TEMP:  55; 6HR MAX TEMP:  73;

PELLA *        CLEAR     60  53  78 NW9       30.00S
PERRY *          N/A     54  52  93 W6        30.02S
$$

IAZ004>006-015-016-023>025-035-036-210700-
   NORTH CENTRAL IOWA

CITY           SKY/WX    TMP DP  RH WIND       PRES   REMARKS
ALGONA *       CLEAR     55  54  94 W10       29.97F
CLARION *        N/A     54  54 100 W6        29.96F
ESTHERVILLE    CLEAR     56  48  74 W10       29.98S
6HR MIN TEMP:  54; 6HR MAX TEMP:  67;

FORT DODGE *   CLEAR     54  50  87 W3        29.99F
MASON CITY     CLEAR     55  54  96 W12       29.94F
6HR MIN TEMP:  55; 6HR MAX TEMP:  77; 6HR PCP:  0.05;

FOREST CITY *  CLEAR     55  54  94 W6        29.94F
IOWA FALLS *     N/A     55  52  88 W8        29.97S
$$

IAZ007>011-017>019-026>030-037>042-050>054-066-210700-
   NORTHEAST IOWA

CITY           SKY/WX    TMP DP  RH WIND       PRES   REMARKS
CEDAR RAPIDS   CLEAR     59  54  83 NW13      29.92R
6HR MIN TEMP:  59; 6HR MAX TEMP:  74;

CHARLES CITY * CLEAR     55  54  94 W10       29.91F
CLINTON *      CLEAR     63  55  77 NW14G23   29.88R
DECORAH *      CLEAR     54  52  94 VRB5      29.86F
DUBUQUE        PTCLDY    57  53  86 NW17G23   29.87R
6HR MIN TEMP:  57; 6HR MAX TEMP:  71; 6HR PCP:  0.06;

MONTICELLO *   CLEAR     59  55  88 NW15G22   29.89R
OELWEIN *      CLEAR     55  54  94 W8        29.91F
WATERLOO       CLEAR     55  53  93 W7        29.92S
6HR MIN TEMP:  55; 6HR MAX TEMP:  74; 6HR PCP:  0.03;

$$

IAZ064-065-067-068-078-210700-
   EAST CENTRAL IOWA

CITY           SKY/WX    TMP DP  RH WIND       PRES   REMARKS
DAVENPORT      PTCLDY    63  55  75 NW16G26   29.88R
6HR MIN TEMP:  63; 6HR MAX TEMP:  72;

IOWA CITY        N/A     62  56  80 NW14      29.93R
6HR MIN TEMP:  62; 6HR MAX TEMP:  76;

MT. PLEASANT * MOCLDY    66  55  68 NW12G18   29.93R
MUSCATINE *    MOCLDY    64  55  72 NW15      29.92R
QUAD CITIES    CLOUDY    66  57  72 NW18G26   29.87R
6HR MIN TEMP:  66; 6HR MAX TEMP:  73; 6HR PCP: TRACE;

$$

IAZ062-063-075>077-085>089-095>099-210700-
   SOUTHEAST IOWA

CITY           SKY/WX    TMP DP  RH WIND       PRES   REMARKS
BURLINGTON     CLEAR     69  59  70 NW12G22   29.90R
6HR MIN TEMP:  69; 6HR MAX TEMP:  75; 6HR PCP: TRACE;

FAIRFIELD *    PTCLDY    63  55  77 NW13G20   29.96R
FORT MADISON * CLEAR     70  59  68 N15G23    29.92R
KEOKUK *       MOCLDY    72  64  78 NW16G22   29.90R
OSKALOOSA *      N/A     61  54  76 NW12      29.98R
CENTERVILLE *  CLEAR     64  52  63 N14G22    30.01R
OTTUMWA        CLEAR     62  53  72 NW15      29.97R
6HR MIN TEMP:  62; 6HR MAX TEMP:  76;

WASHINGTON *   PTCLDY    63  57  82 NW16G24   29.94R
$$

ABBREVIATIONS USED IN REMARKS
   TC - TEMPERATURES IN CELSIUS
  WCI - WIND CHILL INDEX
   HX - HEAT INDEX
  VSB - VISIBILITY
$$



USA.gov is the U.S. government's official web portal to all federal, state and local government web resources and services.